{"data":{"norad_id":59283,"epoch":"2026-05-25T01:51:33.463296Z","epoch_age_seconds":68255,"freshness":"FRESH","line1":"1 59283U 24052D   26145.07747064  .00000011  00000+0  69147-4 0  9995","line2":"2 59283  50.0087   0.2965 0004644 139.4091 220.7171 14.27986882115097","mean_motion":14.27986882,"eccentricity":0.0004644,"inclination_deg":50.0087,"raan_deg":0.2965,"arg_perigee_deg":139.4091,"mean_anomaly_deg":220.7171,"bstar":6.9147e-5,"rev_number":11509,"period_min":100.84126248997,"perigee_km":795.13495447099,"apogee_km":801.80058498111,"semimajor_km":7176.604769726,"source":"CELESTRAK","updated_at":"2026-05-25T13:38:01.313154Z"}}